Regional Weather Roundup
Issued by NWS

Home | Current Version | Previous Version | Text Only | Print | Product List | Glossary On
Versions: 1 2 3 4 5 6 7 8 9 10 11 12 13 14 15 16 17 18 19 20 21 22 23 24 25 26 27 28 29 30 31 32 33 34 35 36 37 38 39 40 41 42 43 44 45 46 47 48 49 50
000
ASUS46 KPQR 230710
RWROR

OREGON REGIONAL WEATHER ROUNDUP
NATIONAL WEATHER SERVICE PORTLAND OR
1200 AM PDT THU MAR 23 2017

NOTE: "FAIR" INDICATES FEW OR NO CLOUDS BELOW 12,000 FEET WITH
NO SIGNIFICANT WEATHER AND/OR OBSTRUCTIONS TO VISIBILITY.

ORZ001>013-230800-
NORTHWEST OREGON


CITY           SKY/WX    TMP DP  RH WIND       PRES   REMARKS
ASTORIA        CLOUDY    44  40  85 S6        30.09S
NEWPORT        CLOUDY    43  39  87 S5        30.16S
PORTLAND       MOCLDY    44  36  73 CALM      30.14R
VANCOUVER WA   MOCLDY    42  39  89 CALM      30.13R
SCAPPOOSE      CLOUDY    40  38  93 W5        30.13R
HILLSBORO      PTCLDY    40  36  86 CALM      30.12R
AURORA         CLEAR     43  37  79 SW5       30.14S
MCMINNVILLE    CLEAR     41  36  82 W6        30.14R
SALEM          MOCLDY    45  36  70 W7        30.13S
CORVALLIS        N/A     41  37  87 SW3       30.15R
EUGENE         CLOUDY    44  41  89 S6        30.15R
$$

ORZ021-028-230800-
SOUTHWEST OREGON


CITY           SKY/WX    TMP DP  RH WIND       PRES   REMARKS
NORTH BEND     CLOUDY    45  45 100 SE9       30.17F
BROOKINGS      PTCLDY    42  40  92 NE3       30.17F
ROSEBURG       CLOUDY    47  40  76 S3        30.15S
SEXTON SUMMIT  PTCLDY    32  30  92 NW6       30.07S WCI  26
MEDFORD        LGT RAIN  46  41  82 W5        30.13R
$$

ORZ014>016-041-230800-
COLUMBIA GORGE


CITY           SKY/WX    TMP DP  RH WIND       PRES   REMARKS
TROUTDALE      CLEAR     45  36  70 SW5       30.13S
THE DALLES     PTCLDY    46  37  71 W15       30.09R
$$

ORZ029>031-041-044-049-050-061>064-502-503-505>511-230800-
EASTERN OREGON


CITY           SKY/WX    TMP DP  RH WIND       PRES   REMARKS
REDMOND        CLEAR     34  27  75 NW5       30.05R WCI  30
BEND           CLEAR     30  28  93 CALM      30.05R
PRINEVILLE     MOCLDY    32  28  86 CALM      30.04R
KLAMATH FALLS  CLEAR     31  29  92 SE3       30.05R
LAKEVIEW       MOCLDY    30  25  80 NW3       30.03R
HERMISTON      CLEAR     44  37  76 SW8       30.05R
PENDLETON      CLEAR     41  33  73 S5        30.05R
JOHN DAY       PTCLDY    38  35  88 CALM      30.02R
MEACHAM        CLOUDY    35  30  82 CALM      30.02R
LA GRANDE      CLOUDY    39  36  87 NW12      30.02R WCI  32
BAKER CITY     CLOUDY    38  34  85 N9        30.00R WCI  31
BURNS          CLEAR     33  29  85 W6        30.00R WCI  28
ROME             N/A     41  35  79 NE3       29.95S
ONTARIO        PTCLDY    45  34  65 NW15      29.96R
$$



USA.gov is the U.S. government's official web portal to all federal, state and local government web resources and services.